#timestamp,LO_Frequency,Hit,StdDev 
1633446015.6,286047321.8,N
1633446035.4,286047322.0,N
1633446055.2,286047322.7,N
1633446075.1,286047322.4,N
1633446076.0,286047322.4,N
1633446095.8,286047323.7,N
1633446115.7,286047324.1,N
1633446135.5,286047322.7,Y
1633446155.3,286047000.9,P
1633446175.2,286046998.6,N
1633446195.0,286047000.9,N
1633446195.9,286047000.9,N
1633446215.8,286046998.8,N
1633446235.6,286046998.8,N
1633446255.4,286046997.0,N
1633446275.3,286046998.4,N
1633446295.1,286046998.2,N
1633446315.8,286047000.3,N
1633446335.7,286047000.9,N
1633446355.5,286047000.2,N
1633446375.4,286047005.9,N
1633446395.2,286047003.1,N
1633446415.0,286047003.7,N
1633446415.9,286047003.7,N
1633446435.8,286047001.8,N
1633446455.6,286047004.4,N
1633446475.5,286047001.5,N
1633446495.3,286047000.3,N
1633446515.1,286046998.9,N
1633446535.9,286046998.9,N
1633446555.7,286046999.7,N
1633446575.5,286047002.5,N
1633446595.4,286047000.2,N
1633446615.2,286047001.0,N
1633446635.1,286047002.4,N
1633446636.0,286047002.4,N
1633446655.8,286047000.2,N
1633446675.6,286047002.7,N
1633446695.5,286047002.6,N
1633446715.3,286047002.0,N
1633446735.1,286047000.5,N
1633446755.9,286047000.5,N
1633446775.7,286047000.7,N
1633446795.6,286047000.5,N
1633446815.4,286047000.6,N
1633446835.2,286046998.6,N
1633446855.1,286046998.1,N
1633446856.0,286046998.1,N
1633446875.8,286047003.6,N
1633446895.7,286047001.5,N
1633446915.5,286046999.7,N
1633446935.3,286047002.8,N
1633446955.2,286047001.0,N
1633446975.9,286047000.6,N
1633446995.7,286046999.9,N
1633447015.6,286047002.0,N
1633447035.4,286047001.4,N
1633447055.3,286047001.8,N
1633447075.1,286047002.8,N
1633447076.0,286047002.8,N
1633447095.8,286047001.3,N
1633447115.7,286047003.7,N
1633447135.5,286047004.2,N
1633447155.3,286047001.9,N
1633447175.2,286047001.9,N
1633447195.0,286047002.6,N
1633447195.9,286047002.6,N
1633447215.8,286047000.1,N
1633447235.6,286046999.9,N
1633447255.4,286047001.1,N
1633447275.3,286046998.5,N
1633447295.1,286047000.2,N
1633447315.9,286047004.0,N
1633447335.7,286047004.4,N
1633447355.5,286046999.9,N
1633447375.4,286047002.1,N
1633447395.2,286047000.0,N
1633447415.1,286046999.4,N
1633447416.0,286046999.4,N
1633447435.8,286046999.3,N
1633447455.6,286046999.0,N
1633447475.5,286046998.8,N
1633447495.3,286046998.7,N
1633447515.1,286046999.1,N
1633447535.9,286047000.3,N
1633447555.7,286047002.3,N
1633447575.6,286047002.2,N
1633447595.4,286047000.3,N
1633447615.2,286047000.6,N
1633447635.1,286047000.6,N
1633447636.0,286047000.6,N
1633447655.8,286047000.6,N
1633447675.7,286047000.2,N
1633447695.5,286047000.5,N
1633447715.3,286047002.8,N
1633447735.2,286047000.4,N
1633447755.0,286047004.0,N
1633447755.9,286047004.0,N
1633447775.8,286047005.2,Y
1633447795.6,286047004.2,P
1633447815.4,286047001.7,N
1633447835.3,286047005.7,P
1633447855.1,286047005.8,N
1633447875.9,286047007.6,Y
1633447895.7,286046999.7,P
1633447915.5,286047002.7,N
1633447935.4,286046998.8,N
1633447955.2,286047002.4,N
1633447975.1,286046999.7,N
1633447976.0,286046999.7,N
1633447995.8,286047000.1,N
1633448015.6,286047000.7,N
1633448035.5,286047000.9,N
1633448055.3,286047001.0,N
1633448075.1,286046998.7,N
1633448095.9,286046999.6,N
1633448115.7,286046999.6,N
1633448135.6,286047000.5,N
1633448155.4,286046998.1,N
1633448175.2,286046998.1,N
1633448195.1,286046998.5,N
1633448196.0,286046998.5,N
1633448215.8,286046996.9,N
1633448235.6,286046996.8,N
1633448255.5,286047001.0,N
1633448275.3,286047000.3,N
1633448295.2,286047001.0,N
1633448315.9,286046999.9,N
1633448335.7,286047000.3,N
1633448355.6,286047000.9,N
1633448375.4,286046999.1,N
1633448395.3,286046999.5,N
1633448415.1,286046999.5,N
1633448416.0,286046999.5,N
1633448435.8,286046999.4,N
1633448455.7,286047000.9,N
1633448475.5,286047001.1,N
1633448495.3,286046999.3,N
1633448515.2,286046999.0,N
1633448535.0,286046999.4,N
1633448555.1,286047001.2,N
1633448575.9,286046998.5,N
1633448595.7,286047000.5,N
1633448615.5,286046999.3,N
1633448635.4,286046999.3,N
1633448655.2,286047001.2,N
1633448675.0,286046999.1,N
1633448676.0,286046999.1,N
1633448695.8,286046999.6,N
1633448715.6,286046997.8,N
1633448735.5,286046994.9,Y
1633448755.3,286046997.0,P
1633448775.1,286046999.1,N
1633448795.9,286046996.6,P
1633448815.7,286046997.1,N
1633448835.6,286046996.8,N
1633448855.4,286047000.8,N
1633448875.2,286046998.9,N
1633448895.1,286046999.0,N
1633448896.0,286046999.0,N
1633448915.8,286046999.1,N
1633448935.7,286046996.6,N
1633448955.5,286046998.7,N
1633448975.3,286046998.7,N
1633448995.2,286047002.8,N
1633449015.9,286047002.3,N
1633449035.7,286046999.9,N
1633449055.6,286047004.0,N
1633449075.4,286047001.8,N
1633449095.3,286047002.2,N
1633449115.1,286046999.7,N
1633449116.0,286046999.7,N
1633449135.8,286046999.9,N
1633449155.7,286047000.2,N
1633449175.5,286047002.2,N
1633449195.3,286047002.5,N
1633449215.2,286047002.8,N
1633449235.0,286047000.8,N
1633449235.9,286047000.8,N
1633449255.8,286047002.6,N
1633449275.6,286047000.1,N
1633449295.4,286047000.5,N
1633449315.3,286046999.7,N
1633449335.1,286047000.6,N
1633449355.9,286046998.6,N
1633449375.7,286046998.5,N
1633449395.5,286046999.3,N
1633449415.4,286046998.8,N
1633449435.2,286047000.8,N
1633449455.1,286046998.4,N
1633449456.0,286046998.4,N
1633449475.8,286046999.3,N
1633449495.6,286046999.1,N
1633449515.5,286046999.2,N
1633449535.3,286047002.4,N
1633449555.2,286047000.1,N
1633449575.9,286047000.6,N
1633449595.7,286046998.5,N
